TimeCDT,TemperatureF,Dew PointF,Humidity,Sea Level PressureIn,VisibilityMPH,Wind Direction,Wind SpeedMPH,Gust SpeedMPH,PrecipitationIn,Events,Conditions,WindDirDegrees,DateUTC
12:52 AM,44.1,36.0,73,30.20,-9999.0,West,4.6,-,N/A,,Unknown,260,2011-10-03 05:52:00
3:52 AM,43.0,35.1,74,30.20,10.0,WNW,4.6,-,N/A,,Unknown,300,2011-10-03 08:52:00
4:52 AM,42.1,35.1,76,30.22,10.0,Calm,Calm,-,N/A,,Unknown,0,2011-10-03 09:52:00
5:52 AM,39.9,35.1,83,30.23,-9999.0,WNW,3.5,-,N/A,,Unknown,290,2011-10-03 10:52:00
6:52 AM,41.0,35.1,79,30.24,10.0,West,3.5,-,N/A,,Clear,280,2011-10-03 11:52:00
7:52 AM,44.1,37.9,79,30.26,10.0,Calm,Calm,-,N/A,,Clear,0,2011-10-03 12:52:00
8:52 AM,54.0,41.0,62,30.28,10.0,Calm,Calm,-,N/A,,Clear,0,2011-10-03 13:52:00
9:52 AM,64.0,39.0,40,30.28,10.0,North,3.5,-,N/A,,Clear,360,2011-10-03 14:52:00
10:52 AM,70.0,36.0,29,30.27,10.0,North,4.6,-,N/A,,Clear,350,2011-10-03 15:52:00
11:52 AM,72.0,37.0,28,30.26,-9999.0,NNE,5.8,-,N/A,,Unknown,20,2011-10-03 16:52:00
12:52 PM,73.0,37.0,27,30.24,10.0,WSW,3.5,-,N/A,,Clear,240,2011-10-03 17:52:00
1:52 PM,75.9,36.0,23,30.21,10.0,Variable,4.6,-,N/A,,Clear,0,2011-10-03 18:52:00
2:52 PM,78.1,37.0,23,30.19,10.0,WNW,8.1,-,N/A,,Clear,300,2011-10-03 19:52:00
3:52 PM,79.0,39.0,24,30.19,10.0,Variable,4.6,-,N/A,,Clear,0,2011-10-03 20:52:00
4:52 PM,78.1,41.0,27,30.18,10.0,North,8.1,-,N/A,,Clear,10,2011-10-03 21:52:00
5:52 PM,73.0,44.1,35,30.19,10.0,NNE,4.6,-,N/A,,Clear,30,2011-10-03 22:52:00
6:52 PM,66.9,42.1,40,30.19,10.0,ENE,4.6,-,N/A,,Clear,60,2011-10-03 23:52:00
8:52 PM,57.0,44.1,62,30.22,10.0,Calm,Calm,-,N/A,,Clear,0,2011-10-04 01:52:00
9:52 PM,54.0,44.1,69,30.21,10.0,ENE,3.5,-,N/A,,Clear,70,2011-10-04 02:52:00
10:52 PM,54.0,44.1,69,30.22,10.0,East,3.5,-,N/A,,Clear,80,2011-10-04 03:52:00
11:52 PM,52.0,44.1,74,30.22,10.0,ESE,5.8,-,N/A,,Clear,120,2011-10-04 04:52:00